Location: Oberkirch
(48.5323°N, 8.0787°E)
Time: 14:02:11
(UTC+00:00)

Vanguard 3 - Pass Details

Date: 24 February 2026
Orbit: 507 x 3205 km, 33.3° (Epoch: 5 March)

Event Time Altitude Azimuth Distance (km) Brightness Sun altitude
Rises 18:33:50 0° 262° (W) 4,665 12.7 -15.7°
Reaches altitude 10° 18:40:33 10° 229° (SW) 2,904 10.6 -16.8°
Maximum altitude 18:41:52 11° 218° (SW) 2,710 10.2 -17.0°
Drops below altitude 10° 18:43:06 10° 206° (SSW) 2,615 10.0 -17.2°
Sets 18:47:38 0° 166° (SSE) 3,072 9.9 -17.9°
Enters shadow 18:47:50 -1° 165° (SSE) 3,117 9.9 -18.0°
